Location: Oberwangen
(47.4286°N, 8.9679°E)
Time: 22:02:32
(UTC+00:00)

Cosmos 1455 - Pass Details

Date: 20 June 2021
Orbit: 496 x 522 km, 82.5° (Epoch: 23 July)

Event Time Altitude Azimuth Distance (km) Brightness Sun altitude
Rises 22:22:33 0° 346° (NNW) 2,644 7.6 -17.7°
Reaches altitude 10° 22:24:44 10° 342° (NNW) 1,747 6.2 -17.8°
Maximum altitude 22:28:28 53° 265° (W) 633 2.6 -18.0°
Enters shadow 22:29:39 36° 210° (SSW) 816 2.8 -18.0°
